COSMOS 2251 DEB, 37293

Orbit data source: Space-Track

COSMOS 2251 DEB, 37293 is space debris in LEO originally from a launch on Wed, 16 Jun 1993 UTC launched from the Plesetsk Missile And Space Complex (PKMTR). The debris from Iridium 33, an American commercial communications satellite, has been tracked extensively since its accidental collision with the defunct Russian satellite Cosmos 2251 in 2009. This event, occurring at high speed in low Earth orbit (LEO), generated thousands of pieces of space debris, significantly increasing the risk of further collisions. The Iridium 33 debris cloud has impacted space traffic management and orbital debris mitigation strategies, making it a subject of ongoing study in space situational awareness.

Loading next visibility...
Identifier
37293, 1993-036BJH
Orbit
LEO
Country
Flag of CISCIS
Related business
Manufacturer
Unknown
Mission
Spacecraft
Bus & Motor
Unknown
Mass
Unknown
Launch date (UTC)
1993-06-16 (33 years ago)
Launch vehicle
Unknown
Launch site
Plesetsk Missile And Space Complex (PKMTR)
Object type
Payload
Rocket body
Debris
Shape & HBR
Unknown shape, 1.1 m
Radar Cross Section
Medium (>0.1 m² and <1 m²)

Expand to show TLE details & history
Last TLE update: 1 month ago

TLE from 1 month ago
0 COSMOS 2251 DEB
1 37293U 93036BJH 26193.50771415  .00001128  00000-0  31457-3 0  9991
2 37293  73.9179 243.6316 0063338 105.7053 255.1104 14.46300245684343
Epoch: 2026-07-12T12:11Z
TLE epoch observation values (Epoch: 2026-07-12T12:11:06.502Z)
Latitude
-0.00001°
Longitude
130.44892°
Altitude
752.224 km
Speed
7.472 km/s
True Right ascension
16h 14m 31s
True Declination
0° 00' 00"
Sunlit
Object was in full shadow at epoch
Visualization orbit readout
Latitude
Unknown
Longitude
Unknown
Altitude
Unknown
Speed
Unknown
Apparent Right ascension
Unknown
Apparent Declination
Unknown
Sunlit
N/A
Visualization observer readout
Local Sidereal Time
01:29:18
Azimuth
Unknown
Elevation
Unknown
Doppler factor
Unknown
Orbital elements
Apogee altitude
780.436 km
Perigee altitude
690.325 km
Semi-major axis
7,113.518 km
Eccentricity
0.00633
Inclination
73.9179°
RAAN
243.6316°
Arg. of periapsis
105.7053°
True anomaly
254.41041°
Mean anomaly
255.1104°
Eccentric anomaly
254.76026°
Mean motion
3.61757 °/min
Orbital period
99.51 mins
BSTAR
0.00031457
Loading maneuver chart data...
Computing Atmospheric mass density...

Documentation

Showing up to 5 results
|